Year,Month,Day,Hour,Minute,Value (Times are PST for temperature in C)
2013,07,21,00,00,17.50
2013,07,21,00,01,17.60
2013,07,21,00,02,17.60
2013,07,21,00,03,17.70
2013,07,21,00,04,17.70
2013,07,21,00,05,17.80
2013,07,21,00,06,17.80
2013,07,21,00,07,17.80
2013,07,21,00,08,17.90
2013,07,21,00,09,17.90
2013,07,21,00,10,17.90
2013,07,21,00,11,18.00
2013,07,21,00,12,18.00
2013,07,21,00,13,18.10
2013,07,21,00,14,18.10
2013,07,21,00,15,18.10
2013,07,21,00,16,18.10
2013,07,21,00,17,18.10
2013,07,21,00,18,18.10
2013,07,21,00,19,18.10
2013,07,21,00,20,18.10
2013,07,21,00,21,18.10
2013,07,21,00,22,18.10
2013,07,21,00,23,18.10
2013,07,21,00,24,18.10
2013,07,21,00,25,18.10
2013,07,21,00,26,18.10
2013,07,21,00,27,18.10
2013,07,21,00,28,18.10
2013,07,21,00,29,18.10
2013,07,21,00,30,18.10
2013,07,21,00,31,18.10
2013,07,21,00,32,18.10
2013,07,21,00,33,18.10
2013,07,21,00,34,18.10
2013,07,21,00,35,18.10
2013,07,21,00,36,18.00
2013,07,21,00,37,18.00
2013,07,21,00,38,18.00
2013,07,21,00,39,18.00
2013,07,21,00,40,18.00
2013,07,21,00,41,17.90
2013,07,21,00,42,17.90
2013,07,21,00,43,17.90
2013,07,21,00,44,17.90
2013,07,21,00,45,17.90
2013,07,21,00,46,17.90
2013,07,21,00,47,17.80
2013,07,21,00,48,17.80
2013,07,21,00,49,17.80
2013,07,21,00,50,17.80
2013,07,21,00,51,17.80
2013,07,21,00,52,17.80
2013,07,21,00,53,17.80
2013,07,21,00,54,17.80
2013,07,21,00,55,17.80
2013,07,21,00,56,17.70
2013,07,21,00,57,17.70
2013,07,21,00,58,17.70
2013,07,21,00,59,17.70
2013,07,21,01,00,17.70
2013,07,21,01,01,17.70
2013,07,21,01,02,17.70
2013,07,21,01,03,17.70
2013,07,21,01,04,17.60
2013,07,21,01,05,17.60
2013,07,21,01,06,17.60
2013,07,21,01,07,17.60
2013,07,21,01,08,17.60
2013,07,21,01,09,17.50
2013,07,21,01,10,17.50
2013,07,21,01,11,17.50
2013,07,21,01,12,17.50
2013,07,21,01,13,17.40
2013,07,21,01,14,17.40
2013,07,21,01,15,17.40
2013,07,21,01,16,17.40
2013,07,21,01,17,17.40
2013,07,21,01,18,17.40
2013,07,21,01,19,17.40
2013,07,21,01,20,17.40
2013,07,21,01,21,17.30
2013,07,21,01,22,17.30
2013,07,21,01,23,17.30
2013,07,21,01,24,17.30
2013,07,21,01,25,17.30
2013,07,21,01,26,17.30
2013,07,21,01,27,17.30
2013,07,21,01,28,17.30
2013,07,21,01,29,17.20
2013,07,21,01,30,17.20
2013,07,21,01,31,17.20
2013,07,21,01,32,17.20
2013,07,21,01,33,17.20
2013,07,21,01,34,17.20
2013,07,21,01,35,17.20
2013,07,21,01,36,17.20
2013,07,21,01,37,17.10
2013,07,21,01,38,17.10
2013,07,21,01,39,17.10
2013,07,21,01,40,17.10
2013,07,21,01,41,17.10
2013,07,21,01,42,17.10
2013,07,21,01,43,17.10
2013,07,21,01,44,17.00
2013,07,21,01,45,17.00
2013,07,21,01,46,16.90
2013,07,21,01,47,16.90
2013,07,21,01,48,16.90
2013,07,21,01,49,16.90
2013,07,21,01,50,16.90
2013,07,21,01,51,16.80
2013,07,21,01,52,16.80
2013,07,21,01,53,16.80
2013,07,21,01,54,16.80
2013,07,21,01,55,16.80
2013,07,21,01,56,16.70
2013,07,21,01,57,16.70
2013,07,21,01,58,16.70
2013,07,21,01,59,16.70
2013,07,21,02,00,16.70
2013,07,21,02,01,16.70
2013,07,21,02,02,16.60
2013,07,21,02,03,16.60
2013,07,21,02,04,16.60
2013,07,21,02,05,16.60
2013,07,21,02,06,16.60
2013,07,21,02,07,16.60
2013,07,21,02,08,16.60
2013,07,21,02,09,16.60
2013,07,21,02,10,16.60
2013,07,21,02,11,16.60
2013,07,21,02,12,16.60
2013,07,21,02,13,16.60
2013,07,21,02,14,16.50
2013,07,21,02,15,16.50
2013,07,21,02,16,16.50
2013,07,21,02,17,16.50
2013,07,21,02,18,16.40
2013,07,21,02,19,16.40
2013,07,21,02,20,16.40
2013,07,21,02,21,16.40
2013,07,21,02,22,16.40
2013,07,21,02,23,16.40
2013,07,21,02,24,16.30
2013,07,21,02,25,16.30
2013,07,21,02,26,16.30
2013,07,21,02,27,16.30
2013,07,21,02,28,16.30
2013,07,21,02,29,16.20
2013,07,21,02,30,16.20
2013,07,21,02,31,16.20
2013,07,21,02,32,16.20
2013,07,21,02,33,16.20
2013,07,21,02,34,16.20
2013,07,21,02,35,16.10
2013,07,21,02,36,16.10
2013,07,21,02,37,16.10
2013,07,21,02,38,16.10
2013,07,21,02,39,16.10
2013,07,21,02,40,16.10
2013,07,21,02,41,16.10
2013,07,21,02,42,16.00
2013,07,21,02,43,16.00
2013,07,21,02,44,16.00
2013,07,21,02,45,16.00
2013,07,21,02,46,16.00
2013,07,21,02,47,15.90
2013,07,21,02,48,15.90
2013,07,21,02,49,15.90
2013,07,21,02,50,15.90
2013,07,21,02,51,15.90
2013,07,21,02,52,15.90
2013,07,21,02,53,15.90
2013,07,21,02,54,15.90
2013,07,21,02,55,15.90
2013,07,21,02,56,15.90
2013,07,21,02,57,15.90
2013,07,21,02,58,15.80
2013,07,21,02,59,15.80
2013,07,21,03,00,15.80
2013,07,21,03,01,15.80
2013,07,21,03,02,15.80
2013,07,21,03,03,15.80
2013,07,21,03,04,15.80
2013,07,21,03,05,15.80
2013,07,21,03,06,15.80
2013,07,21,03,07,15.70
2013,07,21,03,08,15.70
2013,07,21,03,09,15.70
2013,07,21,03,10,15.70
2013,07,21,03,11,15.70
2013,07,21,03,12,15.60
2013,07,21,03,13,15.60
2013,07,21,03,14,15.60
2013,07,21,03,15,15.60
2013,07,21,03,16,15.60
2013,07,21,03,17,15.50
2013,07,21,03,18,15.50
2013,07,21,03,19,15.50
2013,07,21,03,20,15.40
2013,07,21,03,21,15.40
2013,07,21,03,22,15.40
2013,07,21,03,23,15.40
2013,07,21,03,24,15.30
2013,07,21,03,25,15.30
2013,07,21,03,26,15.30
2013,07,21,03,27,15.30
2013,07,21,03,28,15.30
2013,07,21,03,29,15.20
2013,07,21,03,30,15.20
2013,07,21,03,31,15.20
2013,07,21,03,32,15.20
2013,07,21,03,33,15.10
2013,07,21,03,34,15.10
2013,07,21,03,35,15.10
2013,07,21,03,36,15.00
2013,07,21,03,37,15.00
2013,07,21,03,38,15.00
2013,07,21,03,39,15.00
2013,07,21,03,40,15.00
2013,07,21,03,41,15.00
2013,07,21,03,42,15.00
2013,07,21,03,43,15.00
2013,07,21,03,44,15.00
2013,07,21,03,45,15.00
2013,07,21,03,46,15.00
2013,07,21,03,47,15.00
2013,07,21,03,48,15.00
2013,07,21,03,49,15.00
2013,07,21,03,50,15.00
2013,07,21,03,51,15.00
2013,07,21,03,52,15.00
2013,07,21,03,53,15.00
2013,07,21,03,54,15.00
2013,07,21,03,55,15.00
2013,07,21,03,56,15.00
2013,07,21,03,57,15.00
2013,07,21,03,58,15.00
2013,07,21,03,59,15.00
2013,07,21,04,00,14.90
2013,07,21,04,01,14.90
2013,07,21,04,02,14.90
2013,07,21,04,03,14.90
2013,07,21,04,04,14.90
2013,07,21,04,05,14.90
2013,07,21,04,06,14.90
2013,07,21,04,07,14.90
2013,07,21,04,08,14.90
2013,07,21,04,09,14.90
2013,07,21,04,10,14.90
2013,07,21,04,11,14.80
2013,07,21,04,12,14.80
2013,07,21,04,13,14.80
2013,07,21,04,14,14.80
2013,07,21,04,15,14.80
2013,07,21,04,16,14.80
2013,07,21,04,17,14.80
2013,07,21,04,18,14.80
2013,07,21,04,19,14.80
2013,07,21,04,20,14.80
2013,07,21,04,21,14.80
2013,07,21,04,22,14.80
2013,07,21,04,23,14.80
2013,07,21,04,24,14.80
2013,07,21,04,25,14.80
2013,07,21,04,26,14.80
2013,07,21,04,27,14.80
2013,07,21,04,28,14.80
2013,07,21,04,29,14.80
2013,07,21,04,30,14.80
2013,07,21,04,31,14.80
2013,07,21,04,32,14.80
2013,07,21,04,33,14.80
2013,07,21,04,34,14.80
2013,07,21,04,35,14.70
2013,07,21,04,36,14.70
2013,07,21,04,37,14.70
2013,07,21,04,38,14.70
2013,07,21,04,39,14.70
2013,07,21,04,40,14.70
2013,07,21,04,41,14.70
2013,07,21,04,42,14.70
2013,07,21,04,43,14.70
2013,07,21,04,44,14.60
2013,07,21,04,45,14.60
2013,07,21,04,46,14.60
2013,07,21,04,47,14.60
2013,07,21,04,48,14.60
2013,07,21,04,49,14.60
2013,07,21,04,50,14.60
2013,07,21,04,51,14.60
2013,07,21,04,52,14.50
2013,07,21,04,53,14.50
2013,07,21,04,54,14.50
2013,07,21,04,55,14.50
2013,07,21,04,56,14.40
2013,07,21,04,57,14.40
2013,07,21,04,58,14.40
2013,07,21,04,59,14.40
2013,07,21,05,00,14.40
2013,07,21,05,01,14.30
2013,07,21,05,02,14.30
2013,07,21,05,03,14.30
2013,07,21,05,04,14.30
2013,07,21,05,05,14.30
2013,07,21,05,06,14.30
2013,07,21,05,07,14.30
2013,07,21,05,08,14.30
2013,07,21,05,09,14.30
2013,07,21,05,10,14.30
2013,07,21,05,11,14.30
2013,07,21,05,12,14.30
2013,07,21,05,13,14.30
2013,07,21,05,14,14.30
2013,07,21,05,15,14.30
2013,07,21,05,16,14.30
2013,07,21,05,17,14.40
2013,07,21,05,18,14.40
2013,07,21,05,19,14.40
2013,07,21,05,20,14.40
2013,07,21,05,21,14.40
2013,07,21,05,22,14.40
2013,07,21,05,23,14.40
2013,07,21,05,24,14.40
2013,07,21,05,25,14.40
2013,07,21,05,26,14.40
2013,07,21,05,27,14.40
2013,07,21,05,28,14.40
2013,07,21,05,29,14.40
2013,07,21,05,30,14.40
2013,07,21,05,31,14.40
2013,07,21,05,32,14.40
2013,07,21,05,33,14.30
2013,07,21,05,34,14.30
2013,07,21,05,35,14.30
2013,07,21,05,36,14.30
2013,07,21,05,37,14.30
2013,07,21,05,38,14.30
2013,07,21,05,39,14.20
2013,07,21,05,40,14.20
2013,07,21,05,41,14.20
2013,07,21,05,42,14.20
2013,07,21,05,43,14.20
2013,07,21,05,44,14.20
2013,07,21,05,45,14.10
2013,07,21,05,46,14.10
2013,07,21,05,47,14.10
2013,07,21,05,48,14.10
2013,07,21,05,49,14.10
2013,07,21,05,50,14.10
2013,07,21,05,51,14.10
2013,07,21,05,52,14.10
2013,07,21,05,53,14.10
2013,07,21,05,54,14.10
2013,07,21,05,55,14.10
2013,07,21,05,56,14.10
2013,07,21,05,57,14.10
2013,07,21,05,58,14.10
2013,07,21,05,59,14.10
2013,07,21,06,00,14.10
2013,07,21,06,01,14.10
2013,07,21,06,02,14.10
2013,07,21,06,03,14.10
2013,07,21,06,04,14.10
2013,07,21,06,05,14.10
2013,07,21,06,06,14.10
2013,07,21,06,07,14.10
2013,07,21,06,08,14.10
2013,07,21,06,09,14.20
2013,07,21,06,10,14.20
2013,07,21,06,11,14.20
2013,07,21,06,12,14.20
2013,07,21,06,13,14.20
2013,07,21,06,14,14.20
2013,07,21,06,15,14.20
2013,07,21,06,16,14.20
2013,07,21,06,17,14.20
2013,07,21,06,18,14.20
2013,07,21,06,19,14.20
2013,07,21,06,20,14.20
2013,07,21,06,21,14.20
2013,07,21,06,22,14.20
2013,07,21,06,23,14.20
2013,07,21,06,24,14.20
2013,07,21,06,25,14.20
2013,07,21,06,26,14.20
2013,07,21,06,27,14.30
2013,07,21,06,28,14.30
2013,07,21,06,29,14.30
2013,07,21,06,30,14.30
2013,07,21,06,31,14.30
2013,07,21,06,32,14.40
2013,07,21,06,33,14.40
2013,07,21,06,34,14.50
2013,07,21,06,35,14.50
2013,07,21,06,36,14.60
2013,07,21,06,37,14.60
2013,07,21,06,38,14.70
2013,07,21,06,39,14.70
2013,07,21,06,40,14.80
2013,07,21,06,41,14.80
2013,07,21,06,42,14.90
2013,07,21,06,43,15.00
2013,07,21,06,44,15.00
2013,07,21,06,45,15.00
2013,07,21,06,46,15.00
2013,07,21,06,47,15.00
2013,07,21,06,48,15.20
2013,07,21,06,49,15.20
2013,07,21,06,50,15.30
2013,07,21,06,51,15.30
2013,07,21,06,52,15.40
2013,07,21,06,53,15.50
2013,07,21,06,54,15.60
2013,07,21,06,55,15.60
2013,07,21,06,56,15.70
2013,07,21,06,57,15.70
2013,07,21,06,58,15.70
2013,07,21,06,59,15.70
2013,07,21,07,00,15.80
2013,07,21,07,01,15.80
2013,07,21,07,02,15.80
2013,07,21,07,03,15.70
2013,07,21,07,04,15.70
2013,07,21,07,05,15.70
2013,07,21,07,06,15.70
2013,07,21,07,07,15.70
2013,07,21,07,08,15.70
2013,07,21,07,09,15.70
2013,07,21,07,10,15.70
2013,07,21,07,11,15.60
2013,07,21,07,12,15.60
2013,07,21,07,13,15.70
2013,07,21,07,14,15.70
2013,07,21,07,15,15.70
2013,07,21,07,16,15.70
2013,07,21,07,17,15.80
2013,07,21,07,18,15.80
2013,07,21,07,19,15.80
2013,07,21,07,20,15.90
2013,07,21,07,21,16.00
2013,07,21,07,22,16.00
2013,07,21,07,23,16.10
2013,07,21,07,24,16.10
2013,07,21,07,25,16.20
2013,07,21,07,26,16.20
2013,07,21,07,27,16.20
2013,07,21,07,28,16.20
2013,07,21,07,29,16.20
2013,07,21,07,30,16.20
2013,07,21,07,31,16.30
2013,07,21,07,32,16.30
2013,07,21,07,33,16.40
2013,07,21,07,34,16.40
2013,07,21,07,35,16.50
2013,07,21,07,36,16.50
2013,07,21,07,37,16.60
2013,07,21,07,38,16.60
2013,07,21,07,39,16.60
2013,07,21,07,40,16.60
2013,07,21,07,41,16.70
2013,07,21,07,42,16.70
2013,07,21,07,43,16.80
2013,07,21,07,44,16.80
2013,07,21,07,45,16.90
2013,07,21,07,46,16.90
2013,07,21,07,47,17.00
2013,07,21,07,48,17.10
2013,07,21,07,49,17.10
2013,07,21,07,50,17.20
2013,07,21,07,51,17.20
2013,07,21,07,52,17.30
2013,07,21,07,53,17.30
2013,07,21,07,54,17.30
2013,07,21,07,55,17.40
2013,07,21,07,56,17.40
2013,07,21,07,57,17.40
2013,07,21,07,58,17.40
2013,07,21,07,59,17.40
2013,07,21,08,00,17.50
2013,07,21,08,01,17.50
2013,07,21,08,02,17.50
2013,07,21,08,03,17.50
2013,07,21,08,04,17.50
2013,07,21,08,05,17.50
2013,07,21,08,06,17.50
2013,07,21,08,07,17.50
2013,07,21,08,08,17.60
2013,07,21,08,09,17.60
2013,07,21,08,10,17.60
2013,07,21,08,11,17.50
2013,07,21,08,12,17.40
2013,07,21,08,13,17.40
2013,07,21,08,14,17.30
2013,07,21,08,15,17.30
2013,07,21,08,16,17.30
2013,07,21,08,17,17.30
2013,07,21,08,18,17.30
2013,07,21,08,19,17.30
2013,07,21,08,20,17.40
2013,07,21,08,21,17.40
2013,07,21,08,22,17.50
2013,07,21,08,23,17.50
2013,07,21,08,24,17.50
2013,07,21,08,25,17.60
2013,07,21,08,26,17.60
2013,07,21,08,27,17.70
2013,07,21,08,28,17.70
2013,07,21,08,29,17.70
2013,07,21,08,30,17.70
2013,07,21,08,31,17.70
2013,07,21,08,32,17.70
2013,07,21,08,33,17.80
2013,07,21,08,34,17.90
2013,07,21,08,35,17.90
2013,07,21,08,36,18.00
2013,07,21,08,37,17.90
2013,07,21,08,38,18.00
2013,07,21,08,39,18.00
2013,07,21,08,40,18.00
2013,07,21,08,41,18.00
2013,07,21,08,42,18.00
2013,07,21,08,43,17.90
2013,07,21,08,44,17.90
2013,07,21,08,45,17.90
2013,07,21,08,46,17.80
2013,07,21,08,47,17.80
2013,07,21,08,48,17.80
2013,07,21,08,49,17.80
2013,07,21,08,50,17.80
2013,07,21,08,51,17.90
2013,07,21,08,52,18.00
2013,07,21,08,53,18.10
2013,07,21,08,54,18.20
2013,07,21,08,55,18.20
2013,07,21,08,56,18.20
2013,07,21,08,57,18.20
2013,07,21,08,58,18.20
2013,07,21,08,59,18.20
2013,07,21,09,00,18.20
2013,07,21,09,01,18.20
2013,07,21,09,02,18.10
2013,07,21,09,03,18.00
2013,07,21,09,04,17.90
2013,07,21,09,05,17.80
2013,07,21,09,06,17.80
2013,07,21,09,07,17.70
2013,07,21,09,08,17.70
2013,07,21,09,09,17.80
2013,07,21,09,10,17.80
2013,07,21,09,11,17.80
2013,07,21,09,12,17.80
2013,07,21,09,13,17.80
2013,07,21,09,14,17.80
2013,07,21,09,15,17.80
2013,07,21,09,16,17.80
2013,07,21,09,17,17.90
2013,07,21,09,18,17.90
2013,07,21,09,19,17.80
2013,07,21,09,20,17.80
2013,07,21,09,21,17.80
2013,07,21,09,22,17.90
2013,07,21,09,23,17.90
2013,07,21,09,24,17.90
2013,07,21,09,25,17.90
2013,07,21,09,26,17.90
2013,07,21,09,27,17.90
2013,07,21,09,28,18.00
2013,07,21,09,29,18.00
2013,07,21,09,30,18.10
2013,07,21,09,31,18.10
2013,07,21,09,32,18.20
2013,07,21,09,33,18.30
2013,07,21,09,34,18.30
2013,07,21,09,35,18.30
2013,07,21,09,36,18.40
2013,07,21,09,37,18.40
2013,07,21,09,38,18.30
2013,07,21,09,39,18.30
2013,07,21,09,40,18.30
2013,07,21,09,41,18.30
2013,07,21,09,42,18.30
2013,07,21,09,43,18.30
2013,07,21,09,44,18.30
2013,07,21,09,45,18.30
2013,07,21,09,46,18.30
2013,07,21,09,47,18.30
2013,07,21,09,48,18.30
2013,07,21,09,49,18.30
2013,07,21,09,50,18.30
2013,07,21,09,51,18.30
2013,07,21,09,52,18.20
2013,07,21,09,53,18.10
2013,07,21,09,54,18.10
2013,07,21,09,55,18.10
2013,07,21,09,56,18.10
2013,07,21,09,57,18.10
2013,07,21,09,58,18.10
2013,07,21,09,59,18.10
2013,07,21,10,00,18.20
2013,07,21,10,01,18.20
2013,07,21,10,02,18.20
2013,07,21,10,03,18.20
2013,07,21,10,04,18.10
2013,07,21,10,05,18.10
2013,07,21,10,06,18.10
2013,07,21,10,07,18.20
2013,07,21,10,08,18.20
2013,07,21,10,09,18.10
2013,07,21,10,10,18.10
2013,07,21,10,11,18.10
2013,07,21,10,12,18.10
2013,07,21,10,13,18.10
2013,07,21,10,14,18.10
2013,07,21,10,15,18.10
2013,07,21,10,16,18.20
2013,07,21,10,17,18.20
2013,07,21,10,18,18.20
2013,07,21,10,19,18.20
2013,07,21,10,20,18.20
2013,07,21,10,21,18.20
2013,07,21,10,22,18.20
2013,07,21,10,23,18.20
2013,07,21,10,24,18.20
2013,07,21,10,25,18.30
2013,07,21,10,26,18.30
2013,07,21,10,27,18.30
2013,07,21,10,28,18.20
2013,07,21,10,29,18.20
2013,07,21,10,30,18.20
2013,07,21,10,31,18.20
2013,07,21,10,32,18.20
2013,07,21,10,33,18.30
2013,07,21,10,34,18.40
2013,07,21,10,35,18.40
2013,07,21,10,36,18.40
2013,07,21,10,37,18.50
2013,07,21,10,38,18.50
2013,07,21,10,39,18.50
2013,07,21,10,40,18.50
2013,07,21,10,41,18.50
2013,07,21,10,42,18.40
2013,07,21,10,43,18.30
2013,07,21,10,44,18.30
2013,07,21,10,45,18.30
2013,07,21,10,46,18.40
2013,07,21,10,47,18.40
2013,07,21,10,48,18.50
2013,07,21,10,49,18.60
2013,07,21,10,50,18.70
2013,07,21,10,51,18.80
2013,07,21,10,52,18.80
2013,07,21,10,53,18.80
2013,07,21,10,54,18.80
2013,07,21,10,55,18.90
2013,07,21,10,56,18.90
2013,07,21,10,57,18.90
2013,07,21,10,58,18.90
2013,07,21,10,59,19.00
2013,07,21,11,00,19.10
2013,07,21,11,01,19.10
2013,07,21,11,02,19.20
2013,07,21,11,03,19.20
2013,07,21,11,04,19.20
2013,07,21,11,05,19.30
2013,07,21,11,06,19.30
2013,07,21,11,07,19.30
2013,07,21,11,08,19.30
2013,07,21,11,09,19.30
2013,07,21,11,10,19.30
2013,07,21,11,11,19.30
2013,07,21,11,12,19.20
2013,07,21,11,13,19.20
2013,07,21,11,14,19.20
2013,07,21,11,15,19.20
2013,07,21,11,16,19.30
2013,07,21,11,17,19.30
2013,07,21,11,18,19.30
2013,07,21,11,19,19.20
2013,07,21,11,20,19.00
2013,07,21,11,21,19.00
2013,07,21,11,22,19.00
2013,07,21,11,23,19.00
2013,07,21,11,24,19.00
2013,07,21,11,25,19.00
2013,07,21,11,26,19.00
2013,07,21,11,27,19.00
2013,07,21,11,28,19.10
2013,07,21,11,29,19.20
2013,07,21,11,30,19.20
2013,07,21,11,31,19.30
2013,07,21,11,32,19.30
2013,07,21,11,33,19.30
2013,07,21,11,34,19.40
2013,07,21,11,35,19.40
2013,07,21,11,36,19.40
2013,07,21,11,37,19.40
2013,07,21,11,38,19.30
2013,07,21,11,39,19.30
2013,07,21,11,40,19.30
2013,07,21,11,41,19.30
2013,07,21,11,42,19.30
2013,07,21,11,43,19.40
2013,07,21,11,44,19.50
2013,07,21,11,45,19.60
2013,07,21,11,46,19.70
2013,07,21,11,47,19.80
2013,07,21,11,48,19.80
2013,07,21,11,49,19.80
2013,07,21,11,50,19.80
2013,07,21,11,51,19.70
2013,07,21,11,52,19.60
2013,07,21,11,53,19.60
2013,07,21,11,54,19.60
2013,07,21,11,55,19.70
2013,07,21,11,56,19.70
2013,07,21,11,57,19.70
2013,07,21,11,58,19.80
2013,07,21,11,59,19.70
2013,07,21,12,00,19.70
2013,07,21,12,01,19.70
2013,07,21,12,02,19.70
2013,07,21,12,03,19.70
2013,07,21,12,04,19.70
2013,07,21,12,05,19.80
2013,07,21,12,06,19.70
2013,07,21,12,07,19.60
2013,07,21,12,08,19.50
2013,07,21,12,09,19.40
2013,07,21,12,10,19.40
2013,07,21,12,11,19.40
2013,07,21,12,12,19.50
2013,07,21,12,13,19.60
2013,07,21,12,14,19.60
2013,07,21,12,15,19.60
2013,07,21,12,16,19.60
2013,07,21,12,17,19.60
2013,07,21,12,18,19.60
2013,07,21,12,19,19.60
2013,07,21,12,20,19.60
2013,07,21,12,21,19.60
2013,07,21,12,22,19.60
2013,07,21,12,23,19.50
2013,07,21,12,24,19.50
2013,07,21,12,25,19.60
2013,07,21,12,26,19.60
2013,07,21,12,27,19.70
2013,07,21,12,28,19.80
2013,07,21,12,29,19.80
2013,07,21,12,30,19.80
2013,07,21,12,31,19.90
2013,07,21,12,32,19.90
2013,07,21,12,33,20.00
2013,07,21,12,34,20.00
2013,07,21,12,35,20.00
2013,07,21,12,36,19.90
2013,07,21,12,37,19.80
2013,07,21,12,38,19.80
2013,07,21,12,39,19.80
2013,07,21,12,40,19.80
2013,07,21,12,41,19.80
2013,07,21,12,42,19.80
2013,07,21,12,43,19.80
2013,07,21,12,44,19.80
2013,07,21,12,45,19.80
2013,07,21,12,46,19.80
2013,07,21,12,47,19.70
2013,07,21,12,48,19.70
2013,07,21,12,49,19.70
2013,07,21,12,50,19.70
2013,07,21,12,51,19.60
2013,07,21,12,52,19.60
2013,07,21,12,53,19.60
2013,07,21,12,54,19.60
2013,07,21,12,55,19.70
2013,07,21,12,56,19.70
2013,07,21,12,57,19.70
2013,07,21,12,58,19.60
2013,07,21,12,59,19.60
2013,07,21,13,00,19.70
2013,07,21,13,01,19.70
2013,07,21,13,02,19.80
2013,07,21,13,03,19.90
2013,07,21,13,04,19.90
2013,07,21,13,05,20.00
2013,07,21,13,06,20.00
2013,07,21,13,07,20.00
2013,07,21,13,08,20.00
2013,07,21,13,09,19.90
2013,07,21,13,10,20.00
2013,07,21,13,11,20.00
2013,07,21,13,12,20.00
2013,07,21,13,13,20.00
2013,07,21,13,14,20.10
2013,07,21,13,15,20.20
2013,07,21,13,16,20.20
2013,07,21,13,17,20.20
2013,07,21,13,18,20.30
2013,07,21,13,19,20.30
2013,07,21,13,20,20.40
2013,07,21,13,21,20.40
2013,07,21,13,22,20.50
2013,07,21,13,23,20.50
2013,07,21,13,24,20.60
2013,07,21,13,25,20.60
2013,07,21,13,26,20.70
2013,07,21,13,27,20.80
2013,07,21,13,28,20.80
2013,07,21,13,29,20.90
2013,07,21,13,30,20.90
2013,07,21,13,31,20.90
2013,07,21,13,32,20.90
2013,07,21,13,33,20.90
2013,07,21,13,34,20.80
2013,07,21,13,35,20.70
2013,07,21,13,36,20.70
2013,07,21,13,37,20.70
2013,07,21,13,38,20.80
2013,07,21,13,39,20.80
2013,07,21,13,40,20.80
2013,07,21,13,41,20.90
2013,07,21,13,42,21.00
2013,07,21,13,43,21.00
2013,07,21,13,44,21.10
2013,07,21,13,45,21.20
2013,07,21,13,46,21.30
2013,07,21,13,47,21.40
2013,07,21,13,48,21.50
2013,07,21,13,49,21.60
2013,07,21,13,50,21.60
2013,07,21,13,51,21.60
2013,07,21,13,52,21.50
2013,07,21,13,53,21.50
2013,07,21,13,54,21.40
2013,07,21,13,55,21.40
2013,07,21,13,56,21.40
2013,07,21,13,57,21.40
2013,07,21,13,58,21.40
2013,07,21,13,59,21.40
2013,07,21,14,00,21.40
2013,07,21,14,01,21.40
2013,07,21,14,02,21.40
2013,07,21,14,03,21.40
2013,07,21,14,04,21.40
2013,07,21,14,05,21.40
2013,07,21,14,06,21.40
2013,07,21,14,07,21.50
2013,07,21,14,08,21.60
2013,07,21,14,09,21.70
2013,07,21,14,10,21.70
2013,07,21,14,11,21.70
2013,07,21,14,12,21.70
2013,07,21,14,13,21.60
2013,07,21,14,14,21.50
2013,07,21,14,15,21.50
2013,07,21,14,16,21.60
2013,07,21,14,17,21.50
2013,07,21,14,18,21.40
2013,07,21,14,19,21.40
2013,07,21,14,20,21.50
2013,07,21,14,21,21.60
2013,07,21,14,22,21.70
2013,07,21,14,23,21.80
2013,07,21,14,24,21.80
2013,07,21,14,25,21.80
2013,07,21,14,26,21.60
2013,07,21,14,27,21.50
2013,07,21,14,28,21.50
2013,07,21,14,29,21.40
2013,07,21,14,30,21.30
2013,07,21,14,31,21.20
2013,07,21,14,32,21.20
2013,07,21,14,33,21.20
2013,07,21,14,34,21.20
2013,07,21,14,35,21.20
2013,07,21,14,36,21.20
2013,07,21,14,37,21.40
2013,07,21,14,38,21.40
2013,07,21,14,39,21.50
2013,07,21,14,40,21.50
2013,07,21,14,41,21.60
2013,07,21,14,42,21.60
2013,07,21,14,43,21.70
2013,07,21,14,44,21.70
2013,07,21,14,45,21.80
2013,07,21,14,46,21.90
2013,07,21,14,47,22.00
2013,07,21,14,48,22.00
2013,07,21,14,49,22.00
2013,07,21,14,50,22.10
2013,07,21,14,51,22.10
2013,07,21,14,52,22.10
2013,07,21,14,53,22.10
2013,07,21,14,54,22.10
2013,07,21,14,55,22.10
2013,07,21,14,56,22.20
2013,07,21,14,57,22.20
2013,07,21,14,58,22.20
2013,07,21,14,59,22.10
2013,07,21,15,00,22.10
2013,07,21,15,01,22.10
2013,07,21,15,02,22.10
2013,07,21,15,03,22.10
2013,07,21,15,04,22.20
2013,07,21,15,05,22.20
2013,07,21,15,06,22.20
2013,07,21,15,07,22.20
2013,07,21,15,08,22.20
2013,07,21,15,09,22.20
2013,07,21,15,10,22.20
2013,07,21,15,11,22.10
2013,07,21,15,12,22.10
2013,07,21,15,13,22.00
2013,07,21,15,14,22.00
2013,07,21,15,15,22.00
2013,07,21,15,16,22.10
2013,07,21,15,17,22.10
2013,07,21,15,18,22.20
2013,07,21,15,19,22.20
2013,07,21,15,20,22.20
2013,07,21,15,21,22.20
2013,07,21,15,22,22.20
2013,07,21,15,23,22.20
2013,07,21,15,24,22.20
2013,07,21,15,25,22.20
2013,07,21,15,26,22.10
2013,07,21,15,27,22.10
2013,07,21,15,28,22.20
2013,07,21,15,29,22.20
2013,07,21,15,30,22.30
2013,07,21,15,31,22.40
2013,07,21,15,32,22.50
2013,07,21,15,33,22.60
2013,07,21,15,34,22.50
2013,07,21,15,35,22.40
2013,07,21,15,36,22.40
2013,07,21,15,37,22.50
2013,07,21,15,38,22.60
2013,07,21,15,39,22.50
2013,07,21,15,40,22.50
2013,07,21,15,41,22.40
2013,07,21,15,42,22.30
2013,07,21,15,43,22.30
2013,07,21,15,44,22.20
2013,07,21,15,45,22.10
2013,07,21,15,46,22.10
2013,07,21,15,47,22.10
2013,07,21,15,48,22.00
2013,07,21,15,49,22.00
2013,07,21,15,50,22.10
2013,07,21,15,51,22.10
2013,07,21,15,52,22.20
2013,07,21,15,53,22.20
2013,07,21,15,54,22.30
2013,07,21,15,55,22.30
2013,07,21,15,56,22.30
2013,07,21,15,57,22.40
2013,07,21,15,58,22.40
2013,07,21,15,59,22.40
2013,07,21,16,00,22.40
2013,07,21,16,01,22.50
2013,07,21,16,02,22.50
2013,07,21,16,03,22.60
2013,07,21,16,04,22.70
2013,07,21,16,05,22.80
2013,07,21,16,06,23.00
2013,07,21,16,07,23.20
2013,07,21,16,08,23.30
2013,07,21,16,09,23.40
2013,07,21,16,10,23.60
2013,07,21,16,11,23.70
2013,07,21,16,12,23.90
2013,07,21,16,13,24.00
2013,07,21,16,14,24.00
2013,07,21,16,15,23.90
2013,07,21,16,16,23.70
2013,07,21,16,17,23.50
2013,07,21,16,18,23.40
2013,07,21,16,19,23.30
2013,07,21,16,20,23.30
2013,07,21,16,21,23.10
2013,07,21,16,22,23.00
2013,07,21,16,23,22.90
2013,07,21,16,24,22.80
2013,07,21,16,25,22.70
2013,07,21,16,26,22.60
2013,07,21,16,27,22.40
2013,07,21,16,28,22.30
2013,07,21,16,29,22.20
2013,07,21,16,30,22.20
2013,07,21,16,31,22.20
2013,07,21,16,32,22.30
2013,07,21,16,33,22.40
2013,07,21,16,34,22.50
2013,07,21,16,35,22.60
2013,07,21,16,36,22.70
2013,07,21,16,37,22.70
2013,07,21,16,38,22.70
2013,07,21,16,39,22.70
2013,07,21,16,40,22.70
2013,07,21,16,41,22.70
2013,07,21,16,42,22.60
2013,07,21,16,43,22.60
2013,07,21,16,44,22.50
2013,07,21,16,45,22.60
2013,07,21,16,46,22.60
2013,07,21,16,47,22.70
2013,07,21,16,48,22.90
2013,07,21,16,49,23.00
2013,07,21,16,50,23.10
2013,07,21,16,51,23.10
2013,07,21,16,52,23.20
2013,07,21,16,53,23.40
2013,07,21,16,54,23.40
2013,07,21,16,55,23.60
2013,07,21,16,56,23.60
2013,07,21,16,57,23.70
2013,07,21,16,58,23.70
2013,07,21,16,59,23.70
2013,07,21,17,00,23.70
2013,07,21,17,01,23.60
2013,07,21,17,02,23.50
2013,07,21,17,03,23.40
2013,07,21,17,04,23.30
2013,07,21,17,05,23.20
2013,07,21,17,06,23.10
2013,07,21,17,07,23.20
2013,07,21,17,08,23.20
2013,07,21,17,09,23.20
2013,07,21,17,10,23.30
2013,07,21,17,11,23.30
2013,07,21,17,12,23.30
2013,07,21,17,13,23.30
2013,07,21,17,14,23.20
2013,07,21,17,15,23.10
2013,07,21,17,16,22.90
2013,07,21,17,17,22.60
2013,07,21,17,18,22.40
2013,07,21,17,19,22.20